When you browse on this site, cookies collect data to enhance your experience and personalize the content and advertising you see.
Visit our Privacy Policy to learn more. By continuing to use the site, you agree to this use of cookies and data.
  • In France
  • List of Countries
  • For 7 days
  • Water Temperature
  • Satellite Maps
  • Weather Map
  • Weather Widgets
  • user-avatar
    Login

    Hourly Weather Burrel

    Today, 24 May, Friday

    Time Temperature Precipitation Wind Pressure Humidity
    00:00 +13°C° 0 mm 1 mps 730 mmHg 91%
    01:00 +13°C° 0 mm 1 mps 730 mmHg 90%
    02:00 +13°C° 0 mm 1 mps 730 mmHg 90%
    03:00 +12°C° 0 mm 1 mps 730 mmHg 89%
    04:00 +12°C° 0 mm 1 mps 730 mmHg 89%
    05:00 +14°C° 0 mm 1 mps 730 mmHg 84%
    06:00 +16°C° 0 mm 1 mps 730 mmHg 79%
    07:00 +19°C° 0 mm 1 mps 730 mmHg 74%
    08:00 +20°C° 0.1 mm 1 mps 730 mmHg 70%
    09:00 +20°C° 0.1 mm 2 mps 730 mmHg 67%
    10:00 +21°C° 0.1 mm 2 mps 730 mmHg 64%
    11:00 +21°C° 0.5 mm 2 mps 730 mmHg 64%
    12:00 +21°C° 0.5 mm 3 mps 729 mmHg 64%
    13:00 +21°C° 0.5 mm 3 mps 729 mmHg 64%
    14:00 +21°C° 0.3 mm 3 mps 729 mmHg 66%
    15:00 +21°C° 0.3 mm 3 mps 729 mmHg 67%
    16:00 +20°C° 0.3 mm 2 mps 729 mmHg 69%
    17:00 +18°C° 0 mm 2 mps 729 mmHg 76%
    18:00 +18°C° 0 mm 1 mps 729 mmHg 83%
    19:00 +15°C° 0 mm 1 mps 729 mmHg 89%
    20:00 +15°C° 0 mm 1 mps 730 mmHg 91%
    21:00 +14°C° 0 mm 1 mps 730 mmHg 92%
    22:00 +14°C° 0 mm 1 mps 730 mmHg 93%
    23:00 +13°C° 0 mm 1 mps 731 mmHg 92%

    Tomorrow, 25 May, Saturday

    Time Temperature Precipitation Wind Pressure Humidity
    00:00 +13°C° 0 mm 1 mps 731 mmHg 91%
    01:00 +13°C° 0 mm 1 mps 731 mmHg 90%
    02:00 +13°C° 0 mm 1 mps 731 mmHg 90%
    03:00 +12°C° 0 mm 1 mps 731 mmHg 89%
    04:00 +12°C° 0 mm 1 mps 731 mmHg 89%
    05:00 +14°C° 0 mm 1 mps 731 mmHg 83%
    06:00 +15°C° 0 mm 0 mps 731 mmHg 78%
    07:00 +17°C° 0 mm 0 mps 731 mmHg 73%
    08:00 +20°C° 0 mm 1 mps 732 mmHg 69%
    09:00 +20°C° 0 mm 2 mps 732 mmHg 65%
    10:00 +21°C° 0 mm 2 mps 732 mmHg 62%
    11:00 +21°C° 0 mm 2 mps 732 mmHg 60%
    12:00 +23°C° 0 mm 2 mps 732 mmHg 59%
    13:00 +23°C° 0 mm 2 mps 732 mmHg 57%
    14:00 +23°C° 0 mm 2 mps 732 mmHg 58%
    15:00 +23°C° 0 mm 2 mps 731 mmHg 59%
    16:00 +23°C° 0 mm 2 mps 731 mmHg 60%
    17:00 +20°C° 0 mm 2 mps 731 mmHg 69%
    18:00 +19°C° 0 mm 1 mps 731 mmHg 77%
    19:00 +16°C° 0 mm 1 mps 731 mmHg 86%
    20:00 +16°C° 0 mm 1 mps 732 mmHg 86%
    21:00 +15°C° 0 mm 1 mps 732 mmHg 86%
    22:00 +15°C° 0 mm 1 mps 732 mmHg 85%
    23:00 +14°C° 0 mm 1 mps 732 mmHg 84%

    Day after tomorrow, 26 May, Sunday

    Time Temperature Precipitation Wind Pressure Humidity
    00:00 +14°C° 0 mm 1 mps 732 mmHg 82%
    01:00 +14°C° 0 mm 1 mps 732 mmHg 81%
    02:00 +14°C° 0 mm 1 mps 732 mmHg 78%
    03:00 +14°C° 0 mm 1 mps 732 mmHg 75%
    04:00 +13°C° 0 mm 1 mps 731 mmHg 73%
    05:00 +15°C° 0 mm 1 mps 732 mmHg 68%
    06:00 +18°C° 0 mm 1 mps 732 mmHg 64%
    07:00 +20°C° 0 mm 1 mps 732 mmHg 60%
    08:00 +22°C° 0 mm 1 mps 732 mmHg 54%
    09:00 +24°C° 0 mm 1 mps 732 mmHg 49%
    10:00 +25°C° 0 mm 1 mps 732 mmHg 43%
    11:00 +26°C° 0 mm 1 mps 732 mmHg 43%
    12:00 +27°C° 0 mm 2 mps 732 mmHg 43%
    13:00 +27°C° 0 mm 2 mps 732 mmHg 43%
    14:00 +26°C° 0 mm 2 mps 732 mmHg 47%
    15:00 +26°C° 0 mm 2 mps 731 mmHg 52%
    16:00 +25°C° 0 mm 2 mps 731 mmHg 56%
    17:00 +23°C° 0 mm 2 mps 731 mmHg 64%
    18:00 +21°C° 0 mm 1 mps 731 mmHg 72%
    19:00 +19°C° 0 mm 1 mps 731 mmHg 80%
    20:00 +19°C° 0 mm 1 mps 731 mmHg 79%
    21:00 +19°C° 0 mm 1 mps 731 mmHg 77%
    22:00 +19°C° 0 mm 2 mps 731 mmHg 75%
    23:00 +19°C° 0.1 mm 2 mps 731 mmHg 75%

    27 May, Monday

    Time Temperature Precipitation Wind Pressure Humidity
    00:00 +19°C° 0.1 mm 2 mps 731 mmHg 76%
    01:00 +19°C° 0.1 mm 2 mps 731 mmHg 77%
    02:00 +18°C° 0 mm 2 mps 730 mmHg 78%
    03:00 +18°C° 0 mm 2 mps 730 mmHg 79%
    04:00 +18°C° 0 mm 2 mps 730 mmHg 80%
    05:00 +19°C° 0 mm 2 mps 730 mmHg 79%
    06:00 +20°C° 0 mm 2 mps 730 mmHg 78%
    07:00 +23°C° 0 mm 2 mps 730 mmHg 77%
    08:00 +24°C° 0.4 mm 2 mps 730 mmHg 73%
    09:00 +25°C° 0.4 mm 2 mps 730 mmHg 70%
    10:00 +26°C° 0.4 mm 2 mps 730 mmHg 67%
    11:00 +26°C° 0.3 mm 2 mps 729 mmHg 64%
    12:00 +27°C° 0.3 mm 2 mps 729 mmHg 61%
    13:00 +28°C° 0.3 mm 2 mps 729 mmHg 57%
    14:00 +27°C° 1.2 mm 2 mps 729 mmHg 63%
    15:00 +26°C° 1.2 mm 2 mps 728 mmHg 68%
    16:00 +25°C° 1.2 mm 2 mps 728 mmHg 73%
    17:00 +24°C° 0.9 mm 2 mps 728 mmHg 75%
    18:00 +21°C° 0.9 mm 2 mps 728 mmHg 78%
    19:00 +20°C° 0.9 mm 2 mps 728 mmHg 81%
    20:00 +19°C° 0.8 mm 2 mps 728 mmHg 84%
    21:00 +19°C° 0.8 mm 1 mps 728 mmHg 87%
    22:00 +18°C° 0.8 mm 1 mps 729 mmHg 90%
    23:00 +18°C° 0.3 mm 1 mps 728 mmHg 89%

    28 May, Tuesday

    Time Temperature Precipitation Wind Pressure Humidity
    00:00 +18°C° 0.3 mm 1 mps 728 mmHg 89%
    01:00 +16°C° 0.3 mm 1 mps 728 mmHg 89%
    02:00 +16°C° 0.1 mm 1 mps 728 mmHg 89%
    03:00 +16°C° 0.1 mm 1 mps 728 mmHg 89%
    04:00 +16°C° 0.1 mm 1 mps 728 mmHg 89%
    05:00 +18°C° 0.1 mm 1 mps 728 mmHg 84%
    06:00 +19°C° 0.1 mm 2 mps 729 mmHg 80%
    07:00 +20°C° 0.1 mm 2 mps 729 mmHg 75%
    08:00 +21°C° 0.2 mm 2 mps 729 mmHg 71%
    09:00 +21°C° 0.2 mm 3 mps 729 mmHg 67%
    10:00 +22°C° 0.2 mm 3 mps 729 mmHg 63%
    11:00 +22°C° 1 mm 3 mps 729 mmHg 67%
    12:00 +21°C° 1 mm 3 mps 729 mmHg 72%
    13:00 +21°C° 1 mm 3 mps 729 mmHg 76%
    14:00 +21°C° 1 mm 3 mps 729 mmHg 78%
    15:00 +20°C° 1 mm 3 mps 729 mmHg 80%
    16:00 +20°C° 1 mm 3 mps 729 mmHg 83%
    17:00 +19°C° 0.5 mm 2 mps 729 mmHg 86%
    18:00 +18°C° 0.5 mm 2 mps 729 mmHg 90%
    19:00 +18°C° 0.5 mm 1 mps 729 mmHg 94%
    20:00 +18°C° 0.3 mm 1 mps 730 mmHg 94%
    21:00 +16°C° 0.3 mm 1 mps 730 mmHg 95%
    22:00 +15°C° 0.3 mm 0 mps 730 mmHg 95%
    23:00 +15°C° 0.1 mm 0 mps 730 mmHg 95%

    29 May, Wednesday

    Time Temperature Precipitation Wind Pressure Humidity
    00:00 +14°C° 0.1 mm 0 mps 730 mmHg 94%
    01:00 +15°C° 0.1 mm 1 mps 730 mmHg 94%
    02:00 +15°C° 0 mm 1 mps 730 mmHg 94%
    03:00 +15°C° 0 mm 1 mps 731 mmHg 94%
    04:00 +15°C° 0 mm 1 mps 731 mmHg 93%
    05:00 +16°C° 0 mm 1 mps 731 mmHg 89%
    06:00 +19°C° 0 mm 1 mps 731 mmHg 84%
    07:00 +20°C° 0 mm 1 mps 732 mmHg 80%
    08:00 +21°C° 0 mm 1 mps 732 mmHg 76%
    09:00 +21°C° 0 mm 2 mps 732 mmHg 72%
    10:00 +23°C° 0 mm 2 mps 732 mmHg 68%
    11:00 +23°C° 0.2 mm 2 mps 732 mmHg 71%
    12:00 +23°C° 0.2 mm 2 mps 732 mmHg 74%
    13:00 +21°C° 0.2 mm 2 mps 732 mmHg 77%
    14:00 +23°C° 0.1 mm 2 mps 732 mmHg 77%
    15:00 +23°C° 0.1 mm 2 mps 732 mmHg 76%
    16:00 +23°C° 0.1 mm 2 mps 732 mmHg 76%
    17:00 +22°C° 0 mm 1 mps 732 mmHg 82%
    18:00 +20°C° 0 mm 1 mps 733 mmHg 87%
    19:00 +17°C° 0 mm 0 mps 733 mmHg 93%
    20:00 +18°C° 0 mm 1 mps 733 mmHg 93%
    21:00 +18°C° 0 mm 1 mps 733 mmHg 94%
    22:00 +16°C° 0 mm 1 mps 734 mmHg 94%
    23:00 +16°C° 0 mm 1 mps 734 mmHg 93%
    Show more